Kingston, Jamaica

5:48 AM EST on January 16, 2018 (GMT -0500)
Norman Manley International

Weather History for MKJP - September, 2013

Change the Weather History Date:

Friday, September 13, 2013

  Actual Average Record
Temperature  
Mean Temperature 85 °F -  
Max Temperature 91 °F 87 °F 93 °F (2002)
Min Temperature 79 °F 78 °F 73 °F (2017)
Cooling Degree Days 20    
Growing Degree Days 35 (Base 50)    
Moisture  
Dew Point 76 °F    
Average Humidity 73    
Maximum Humidity 84    
Minimum Humidity 62    
Precipitation  
Precipitation 0.00 in - - ()
Sea Level Pressure  
Sea Level Pressure 29.78 in    
Wind  
Wind Speed 6 mph ()    
Max Wind Speed 13 mph    
Max Gust Speed -    
Visibility 7.3 miles    
Events Rain , Thunderstorm    
Averages and records for this station are not official NWS values.
T = Trace of Precipitation, MM = Missing Value Source: Averaged Metar Reports

Daily Weather History Graph

Daily Weather History Graph

Search for Another Location

Airport or City:

Trip Planner

Search our weather history database for the weather conditions in past years. The results will help you decide how hot, cold, wet, or windy it might be!

Date:

Astronomy

Sep. 13, 2013 Rise Set
Actual Time 5:54 AM EST 6:10 PM EST
Civil Twilight 5:32 AM EST 6:32 PM EST
Nautical Twilight 5:07 AM EST 6:57 PM EST
Astronomical Twilight 4:42 AM EST 7:23 PM EST
Moon 1:23 PM EST (9/13) No Moon Set
Length of Visible Light 12h 59m
Length of Day
12h 16m
First Quarter, 61% of the Moon is Illuminated
Sep 13
First Quarter
Sep 19
Full
Sep 26
Last Quarter
Oct 4
New
Oct 11
First Quarter

Hourly Weather History & Observations

Time (EST) Temp. Heat Index Dew Point Humidity Pressure Visibility Wind Dir Wind Speed Gust Speed Precip Events Conditions
12:00 AM 82.4 °F 88.2 °F 73.4 °F 74% 29.80 in 6.2 mi North 6.9 mph - N/A   Mostly Cloudy
1:00 AM 82 °F - 74 °F 70% 29.79 in 12 mi NNW 10.4 mph - -   Haze
1:00 AM 82.4 °F 88.2 °F 73.4 °F 74% 29.77 in 6.2 mi NNW 10.4 mph - N/A   Mostly Cloudy
2:00 AM 80.6 °F 85.4 °F 73.4 °F 79% - 6.2 mi NNW 6.9 mph - N/A Thunderstorm Mostly Cloudy
3:00 AM 82.4 °F 88.2 °F 73.4 °F 74% 29.77 in 6.2 mi North 3.5 mph - N/A Thunderstorm Thunderstorm
4:00 AM 81 °F - 75 °F 77% 29.79 in 12 mi NW 4.6 mph - - Thunderstorm Light Thunderstorm
4:00 AM 80.6 °F 86.2 °F 75.2 °F 84% 29.77 in 6.2 mi NW 4.6 mph - N/A Thunderstorm Partly Cloudy
5:00 AM 82.4 °F 89.5 °F 75.2 °F 79% 29.77 in 6.2 mi North 6.9 mph - N/A Thunderstorm Partly Cloudy
5:44 AM 82.4 °F 88.2 °F 73.4 °F 74% 29.77 in 6.2 mi NNE 4.6 mph - N/A Thunderstorm Thunderstorm
6:00 AM 82.4 °F 89.5 °F 75.2 °F 79% 29.77 in 6.2 mi NNE 5.8 mph - N/A Thunderstorm Mostly Cloudy
7:00 AM 82 °F - 76 °F 76% 29.82 in 12 mi NNW 6.9 mph - - Rain Light Rain
7:00 AM 82.4 °F 89.5 °F 75.2 °F 79% 2.95 in 6.2 mi NNW 6.9 mph - N/A Rain Light Rain
8:00 AM 84.2 °F 92.3 °F 75.2 °F 74% 29.83 in 6.2 mi NNW 4.6 mph - N/A   Partly Cloudy
9:00 AM 86.0 °F 96.9 °F 77.0 °F 74% 29.83 in 6.2 mi NNW 5.8 mph - N/A   Partly Cloudy
10:00 AM 86 °F - 77 °F 67% 29.74 in 9 mi SE 6.9 mph - - Thunderstorm Thunderstorm
10:00 AM 86.0 °F 95.1 °F 75.2 °F 70% 29.83 in 6.2 mi SSW 9.2 mph - N/A   Partly Cloudy
11:00 AM 87.8 °F 99.7 °F 77.0 °F 70% 29.80 in 6.2 mi South 9.2 mph - N/A   Partly Cloudy
12:00 PM 86.0 °F 95.1 °F 75.2 °F 70% 29.80 in 6.2 mi SSW 10.4 mph - N/A   Partly Cloudy
1:00 PM 87 °F - 78 °F 68% 29.78 in 11 mi South 8.1 mph - -   Haze
1:00 PM 87.8 °F 99.7 °F 77.0 °F 70% 29.77 in 6.2 mi South 8.1 mph - N/A   Scattered Clouds
2:00 PM 89.6 °F 99.8 °F 75.2 °F 62% 29.74 in 6.2 mi SSE 12.7 mph - N/A   Partly Cloudy
3:00 PM 87.8 °F 99.7 °F 77.0 °F 70% 29.74 in 6.2 mi SSE 12.7 mph - N/A   Mostly Cloudy
4:00 PM 86 °F - 77 °F 67% 29.74 in 9 mi SE 6.9 mph - - Thunderstorm Thunderstorm
4:00 PM 86.0 °F 96.9 °F 77.0 °F 74% 29.74 in 6.2 mi SE 6.9 mph - N/A Thunderstorm Thunderstorm
4:27 PM 86.0 °F 96.9 °F 77.0 °F 74% 29.74 in 6.2 mi ESE 5.8 mph - N/A   Mostly Cloudy
5:00 PM 86.0 °F 96.9 °F 77.0 °F 74% 29.74 in 6.2 mi ESE 3.5 mph - N/A   Mostly Cloudy
6:00 PM 86.0 °F 95.1 °F 75.2 °F 70% 29.74 in 6.2 mi NNW 3.5 mph - N/A   Mostly Cloudy
7:00 PM 86 °F - 79 °F 75% 29.78 in 11 mi WSW 3.5 mph - - Thunderstorm Light Thunderstorm
7:00 PM 86.0 °F 99.3 °F 78.8 °F 79% 29.77 in 6.2 mi WSW 3.5 mph - N/A   Scattered Clouds
8:00 PM 84.2 °F 92.3 °F 75.2 °F 74% 29.80 in 6.2 mi North 5.8 mph - N/A   Partly Cloudy
9:00 PM 84.2 °F 92.3 °F 75.2 °F 74% 29.80 in 6.2 mi SSE 4.6 mph - N/A   Partly Cloudy
10:00 PM 83 °F - 76 °F 75% 29.83 in 11 mi South 3.5 mph - -   Haze
10:00 PM 84.2 °F 94.1 °F 77.0 °F 79% 29.80 in 6.2 mi South 3.5 mph - N/A   Partly Cloudy
11:00 PM 84.2 °F 90.9 °F 73.4 °F 70% 29.80 in 6.2 mi South 4.6 mph - N/A   Mostly Cloudy